Location: Baix
(44.7118°N, 4.7648°E)
Time: 07:05:43
(UTC+00:00)

Vanguard 1 - Pass Details

Date: 27 November 2020
Orbit: 648 x 3834 km, 34.3° (Epoch: 21 January)

Event Time Altitude Azimuth Distance (km) Brightness Sun altitude
Rises 10:13:25 0° 272° (W) 5,102 13.5 21.8°
Reaches altitude 10° 10:16:35 10° 264° (W) 4,479 13.4 22.0°
Maximum altitude 10:28:16 37° 203° (SSW) 3,890 14.1 22.6°
Drops below altitude 10° 10:46:12 10° 147° (SSE) 6,763 15.7 23.3°
Sets 10:52:33 0° 140° (SE) 7,942 15.6 23.5°
